Terug naar catalogus

CAS500-3

ActiefWetenschapSSO
NORAD 66655·PAYLOAD·🇰🇷 South Korea

Gelanceerd Nov 26, 2025 vanaf Naro Space Center

Loading…

Volgende Passages (komende 24 uur)

TLE

VersSource: Space-Track

Epoch: Sep 14, 2026, 05:28 UTC

1 66655U 25274F   26257.22846318  .00000934  00000-0  10676-3 0  9993
2 66655  97.7426 183.2395 0003197 317.7924  42.3046 14.88322521 43393

Volg CAS500-3 in realtime met AllMySat

Download on the App Store